Volver al catálogo

M-3H R/B

ActivoHEO
NORAD 11028·ROCKET BODY·🇯🇵 Japan

Lanzado Sep 16, 1978 desde Uchinoura Space Center

Loading…

Próximos Pases (próximas 24 horas)

TLE

ActualizadoSource: Space-Track

Época: Sep 14, 2026, 19:51 UTC

1 11028U 78087B   26257.82721267  .00031183  00000-0  10544-2 0  9991
2 11028  31.2444 202.7853 3982238 192.9531 152.7842  7.52183359732693

Sigue M-3H R/B en tiempo real con AllMySat

Download on the App Store